Sauk Centre, MN

6:49 AM CDT on June 28, 2017 (GMT -0500)
Sauk Centre

Weather History for KD39 - March, 2013

Change the Weather History Date:

Saturday, March 2, 2013

  Actual Average (KGHW) Record (KGHW)
Temperature  
Mean Temperature 9 °F -  
Max Temperature 23 °F 31 °F 50 °F (1990)
Min Temperature -5 °F 12 °F -19 °F (1950)
Degree Days  
Heating Degree Days 56    
Moisture  
Dew Point 4 °F    
Average Humidity 74    
Maximum Humidity 92    
Minimum Humidity 46    
Precipitation  
Precipitation 0.00 in - - ()
Sea Level Pressure  
Sea Level Pressure 30.24 in    
Wind  
Wind Speed 2 mph (SE)    
Max Wind Speed 9 mph    
Max Gust Speed -    
Visibility 10 miles    
Events      
Averages and records for this station are not official NWS values.
T = Trace of Precipitation, MM = Missing Value Source: NWS Daily Summary

Daily Weather History Graph

Daily Weather History Graph

Search for Another Location

Airport or City:

Trip Planner

Search our weather history database for the weather conditions in past years. The results will help you decide how hot, cold, wet, or windy it might be!

Date:

Astronomy

Mar. 02, 2013 Rise Set
Actual Time 6:55 AM CST 6:08 PM CST
Civil Twilight 6:26 AM CST 6:38 PM CST
Nautical Twilight 5:51 AM CST 7:12 PM CST
Astronomical Twilight 5:17 AM CST 7:47 PM CST
Moon No Moon Rise 9:06 AM CST (3/2)
Length of Visible Light 12h 11m
Length of Day
11h 12m
Waning Gibbous, 74% of the Moon is Illuminated
Mar 2
Waning Gibbous
Mar 4
Last Quarter
Mar 11
New
Mar 19
First Quarter
Mar 27
Full

Hourly Weather History & Observations

Time (CST) Temp. Windchill Dew Point Humidity Pressure Visibility Wind Dir Wind Speed Gust Speed Precip Events Conditions
12:15 AM 1.4 °F - -0.4 °F 92% 30.33 in 10.0 mi Calm Calm - N/A   Clear
12:35 AM 3.2 °F - -0.4 °F 85% 30.33 in 10.0 mi Calm Calm - N/A   Clear
12:55 AM 3.2 °F - -0.4 °F 85% 30.33 in 10.0 mi Calm Calm - N/A   Clear
1:15 AM 3.2 °F - -0.4 °F 85% 30.33 in 10.0 mi Calm Calm - N/A   Clear
1:35 AM -0.4 °F - -4.0 °F 85% 30.33 in 10.0 mi Calm Calm - N/A   Clear
1:55 AM -0.4 °F - -4.0 °F 85% 30.33 in 10.0 mi Calm Calm - N/A   Clear
2:15 AM -0.4 °F - -4.0 °F 85% 30.34 in 10.0 mi Calm Calm - N/A   Clear
2:35 AM 1.4 °F - -2.2 °F 85% 30.33 in 10.0 mi Calm Calm - N/A   Clear
2:55 AM -2.2 °F - -5.8 °F 85% 30.33 in 10.0 mi Calm Calm - N/A   Clear
3:15 AM -2.2 °F - -5.8 °F 85% 30.33 in 10.0 mi Calm Calm - N/A   Clear
3:35 AM -4.0 °F - -5.8 °F 92% 30.31 in 10.0 mi Calm Calm - N/A   Clear
3:55 AM -4.0 °F - -7.6 °F 85% 30.32 in 10.0 mi Calm Calm - N/A   Clear
4:15 AM -5.8 °F - -7.6 °F 92% 30.31 in 10.0 mi Calm Calm - N/A   Clear
4:35 AM -4.0 °F - -7.6 °F 85% 30.31 in 10.0 mi Calm Calm - N/A   Clear
4:55 AM -4.0 °F - -7.6 °F 85% 30.31 in 10.0 mi Calm Calm - N/A   Clear
5:15 AM -5.8 °F - -9.4 °F 84% 30.31 in 10.0 mi Calm Calm - N/A   Clear
5:35 AM -4.0 °F - -7.6 °F 85% 30.31 in 10.0 mi Calm Calm - N/A   Clear
6:15 AM -5.8 °F - -9.4 °F 84% 30.31 in 10.0 mi Calm Calm - N/A   Clear
6:35 AM -5.8 °F - -9.4 °F 84% 30.31 in 10.0 mi Calm Calm - N/A   Clear
6:55 AM -5.8 °F - -7.6 °F 92% 30.31 in 10.0 mi Calm Calm - N/A   Clear
7:15 AM -5.8 °F - -9.4 °F 84% 30.31 in 10.0 mi Calm Calm - N/A   Clear
7:35 AM -4.0 °F - -7.6 °F 85% 30.30 in 10.0 mi Calm Calm - N/A   Clear
7:55 AM -5.8 °F - -9.4 °F 84% 30.30 in 10.0 mi Calm Calm - N/A   Clear
8:15 AM -4.0 °F - -7.6 °F 85% 30.30 in 10.0 mi Calm Calm - N/A   Clear
8:35 AM -2.2 °F - -5.8 °F 85% 30.29 in 10.0 mi Calm Calm - N/A   Clear
8:55 AM -0.4 °F - -4.0 °F 85% 30.29 in 10.0 mi Calm Calm - N/A   Clear
9:15 AM 3.2 °F - -0.4 °F 85% 30.29 in 10.0 mi Calm Calm - N/A   Clear
9:35 AM 5.0 °F - 1.4 °F 85% 30.29 in 10.0 mi Calm Calm - N/A   Clear
9:55 AM 8.6 °F - 3.2 °F 79% 30.29 in 10.0 mi Calm Calm - N/A   Clear
10:15 AM 10.4 °F - 5.0 °F 79% 30.29 in 10.0 mi Calm Calm - N/A   Clear
10:35 AM 14.0 °F - 6.8 °F 73% 30.29 in 10.0 mi Calm Calm - N/A   Clear
10:55 AM 14.0 °F 8.2 °F 8.6 °F 79% 30.29 in 10.0 mi SSE 3.5 mph - N/A   Clear
11:15 AM 15.8 °F 7.2 °F 10.4 °F 79% 30.27 in 10.0 mi SSE 5.8 mph - N/A   Clear
11:35 AM 17.6 °F 8.2 °F 10.4 °F 73% 30.26 in 10.0 mi SE 6.9 mph - N/A   Clear
11:55 AM 17.6 °F 8.2 °F 12.2 °F 79% 30.26 in 10.0 mi SSE 6.9 mph - N/A   Clear
12:15 PM 19.4 °F 9.5 °F 12.2 °F 74% 30.25 in 10.0 mi SSE 8.1 mph - N/A   Clear
12:35 PM 19.4 °F 11.5 °F 10.4 °F 68% 30.25 in 10.0 mi SE 5.8 mph - N/A   Clear
12:55 PM 19.4 °F 11.5 °F 10.4 °F 68% 30.25 in 10.0 mi South 5.8 mph - N/A   Clear
1:15 PM 21.2 °F 12.6 °F 12.2 °F 68% 30.23 in 10.0 mi South 6.9 mph - N/A   Clear
1:35 PM 21.2 °F 13.6 °F 12.2 °F 68% 30.23 in 10.0 mi SSE 5.8 mph - N/A   Clear
1:55 PM 21.2 °F 12.6 °F 12.2 °F 68% 30.21 in 10.0 mi SSE 6.9 mph - N/A   Clear
2:15 PM 21.2 °F 14.9 °F 12.2 °F 68% 30.22 in 10.0 mi SSE 4.6 mph - N/A   Scattered Clouds
2:35 PM 23.0 °F 14.7 °F 12.2 °F 63% 30.21 in 10.0 mi SSE 6.9 mph - N/A   Mostly Cloudy
2:55 PM 21.2 °F 12.6 °F 12.2 °F 68% 30.20 in 10.0 mi SSE 6.9 mph - N/A   Overcast
3:15 PM 23.0 °F 13.9 °F 12.2 °F 63% 30.19 in 10.0 mi SSE 8.1 mph - N/A   Overcast
3:35 PM 23.0 °F 13.9 °F 12.2 °F 63% 30.19 in 10.0 mi SSE 8.1 mph - N/A   Overcast
4:15 PM 23.0 °F 14.7 °F 10.4 °F 59% 30.17 in 10.0 mi SE 6.9 mph - N/A   Overcast
4:35 PM 23.0 °F 13.9 °F 10.4 °F 59% 30.17 in 10.0 mi SE 8.1 mph - N/A   Overcast
4:55 PM 23.0 °F 13.9 °F 12.2 °F 63% 30.17 in 10.0 mi SE 8.1 mph - N/A   Overcast
5:15 PM 23.0 °F 17.0 °F 10.4 °F 59% 30.17 in 10.0 mi SE 4.6 mph - N/A   Overcast
5:35 PM 23.0 °F 15.8 °F 10.4 °F 59% 30.17 in 10.0 mi ESE 5.8 mph - N/A   Overcast
5:55 PM 23.0 °F 15.8 °F 12.2 °F 63% 30.17 in 10.0 mi ESE 5.8 mph - N/A   Overcast
6:35 PM 23.0 °F 13.9 °F 10.4 °F 59% 30.16 in 10.0 mi SE 8.1 mph - N/A   Overcast
6:55 PM 23.0 °F 15.8 °F 10.4 °F 59% 30.17 in 10.0 mi SE 5.8 mph - N/A   Overcast
7:35 PM 23.0 °F 14.7 °F 8.6 °F 54% 30.16 in 10.0 mi SE 6.9 mph - N/A   Overcast
7:55 PM 23.0 °F 13.1 °F 5.0 °F 46% 30.15 in 10.0 mi SE 9.2 mph - N/A   Overcast
8:15 PM 21.2 °F 12.6 °F 6.8 °F 54% 30.15 in 10.0 mi SE 6.9 mph - N/A   Overcast
8:35 PM 21.2 °F 12.6 °F 8.6 °F 58% 30.15 in 10.0 mi SE 6.9 mph - N/A   Overcast
8:55 PM 21.2 °F 13.6 °F 6.8 °F 54% 30.15 in 10.0 mi SE 5.8 mph - N/A   Overcast
9:15 PM 21.2 °F 12.6 °F 8.6 °F 58% 30.15 in 10.0 mi ESE 6.9 mph - N/A   Overcast
9:35 PM 21.2 °F 13.6 °F 10.4 °F 63% 30.14 in 10.0 mi ESE 5.8 mph - N/A   Overcast
9:55 PM 21.2 °F 12.6 °F 10.4 °F 63% 30.14 in 10.0 mi SE 6.9 mph - N/A   Overcast
10:15 PM 21.2 °F 11.7 °F 10.4 °F 63% 30.13 in 10.0 mi SSE 8.1 mph - N/A   Overcast
10:35 PM 21.2 °F 12.6 °F 12.2 °F 68% 30.13 in 10.0 mi SE 6.9 mph - N/A   Overcast
10:55 PM 21.2 °F 12.6 °F 12.2 °F 68% 30.12 in 10.0 mi SE 6.9 mph - N/A   Overcast
11:15 PM 21.2 °F 12.6 °F 12.2 °F 68% 30.11 in 10.0 mi ESE 6.9 mph - N/A   Overcast
11:35 PM 21.2 °F 13.6 °F 12.2 °F 68% 30.10 in 10.0 mi SE 5.8 mph - N/A   Overcast
11:55 PM 21.2 °F 12.6 °F 12.2 °F 68% 30.09 in 10.0 mi SE 6.9 mph - N/A   Overcast